Været på Ålesund Lufhavn, Vigra (ENAL)

 

Time for time, neste 48 timer:

Detaljert varsel fra yr.no - 48 timer

Vindprognose for Breisundet:

Vindvarsel

Upper Winds 3000 fot akkurat nå:

ENAL akkurat nå:

  • METAR: 261020Z 20009KT 9999 SCT055 11/03 Q0992
  • TAF: TAF 260800Z 2609/2618 19012KT 9999 FEW040 SCT060